[[{"header":{"parameterUnit":"m.s-1","parameterCategory":1,"la1":30.2991,"la2":30.254,"lo1":-89.0895,"lo2":-89.0444,"dy":0.0017,"dx":0.0017,"nx":28,"ny":28,"refTime":"2024-05-15T21:00:00:Z","depth":0,"parameterNumber":2,"parameterNumberName":"U-component_of_WINDS"},"data":[0,0,0,0,0,0,0,0,0,0,0,0,0,0,0,0,0,0,0,0,0,0,0,0,0,0,0,0,0,0,0,0,0,0,0,0,0,0,0,0,0,0,0,0,0,0,0,0,0,0,0,0,0,0,0,0,0,0,-1.488,-1.4879,0,-1.4821,-1.4821,-1.482,-1.4765,-1.4765,-1.4764,-1.4763,-1.4704,-1.4703,-1.4702,0,0,0,0,0,0,0,0,0,0,0,0,0,-1.4943,-1.4942,-1.488,-1.4879,-1.4878,-1.4821,-1.4821,-1.482,-1.4766,-1.4765,-1.4764,-1.4763,-1.4704,-1.4703,-1.4702,0,0,0,0,0,0,0,0,0,0,0,0,0,-1.4903,-1.4942,-1.488,-1.4845,-1.4841,-1.4822,-1.4821,-1.482,-1.4766,-1.4765,-1.4764,-1.4763,-1.4704,-1.4703,-1.4701,-1.4713,0,0,-1.4697,-1.4696,0,0,0,0,0,0,0,0,-1.4905,-1.4901,-1.485,-1.4847,-1.4843,-1.48,-1.4821,-1.4784,-1.4766,-1.4794,-1.4763,-1.4762,-1.4736,-1.4732,-1.4723,-1.471,-1.4707,-1.4697,-1.4696,-1.4695,-1.4695,0,0,0,0,0,0,0,-1.4908,-1.4903,-1.4857,-1.485,-1.4845,-1.4831,-1.4824,-1.4813,-1.4772,-1.4792,-1.4788,-1.4781,-1.4734,-1.4725,-1.4722,-1.4706,-1.4697,-1.4696,-1.4695,-1.4694,-1.4695,-1.4696,0,0,0,0,0,0,-1.4917,-1.4906,-1.4859,-1.4855,-1.4872,-1.483,-1.4823,-1.4814,-1.4772,-1.4764,-1.4782,-1.4779,-1.4728,-1.4723,-1.4719,-1.4727,-1.4695,-1.4694,-1.4693,-1.4694,-1.4695,-1.4696,0,0,0,0,0,0,-1.4918,-1.4913,-1.4861,-1.4879,-1.4871,-1.483,-1.4821,-1.4814,-1.4805,-1.4765,-1.4757,-1.4781,-1.4727,-1.4721,-1.4714,-1.4724,-1.4693,-1.4692,-1.4693,-1.4694,-1.4696,-1.4744,0,0,0,0,0,0,-1.492,-1.4914,-1.4918,-1.488,-1.4871,-1.4857,-1.4822,-1.4813,-1.4802,-1.4798,-1.4761,-1.4754,-1.4726,-1.4716,-1.4712,-1.4722,-1.4691,-1.4692,-1.4694,-1.4695,-1.4741,-1.4747,-1.4752,0,0,0,0,0,-1.4923,-1.4935,-1.4919,-1.4913,-1.4875,-1.4858,-1.4853,-1.482,-1.4804,-1.4807,-1.4781,-1.4755,-1.4724,-1.4716,-1.4711,-1.472,-1.4691,-1.4693,-1.4695,-1.4739,-1.4746,-1.4752,0,0,0,0,0,0,-1.4977,-1.4929,-1.4911,-1.4911,-1.4889,-1.4849,-1.4853,-1.4829,-1.4811,-1.4807,-1.4767,-1.4759,-1.4755,-1.4737,-1.4729,-1.4727,-1.4704,-1.4705,-1.4739,-1.4745,-1.475,-1.4754,-1.469,0,0,0,0,0,-1.4989,-1.4979,-1.4938,-1.4942,-1.4932,-1.4894,-1.4885,-1.4862,-1.4837,-1.4827,-1.4801,-1.4777,-1.4762,-1.4752,-1.4736,-1.4739,-1.4728,-1.4742,-1.4747,-1.4752,-1.4753,-1.4749,-1.4754,-1.4703,-1.4703,-1.4703,0,0,-1.5013,-1.4986,-1.4983,-1.4952,-1.4932,-1.4922,-1.4887,-1.4878,-1.4869,-1.4826,-1.4816,-1.4796,-1.4767,-1.4764,-1.4761,-1.4748,-1.4765,-1.4754,-1.4758,-1.4757,-1.4752,-1.4757,-1.4761,-1.4704,-1.4704,-1.4704,0,0,-1.5052,-1.5032,-1.5032,-1.5012,-1.4981,-1.4956,-1.4956,-1.4919,-1.4903,-1.4893,-1.4859,-1.4848,-1.4823,-1.4803,-1.4789,-1.4818,-1.4793,-1.4814,-1.4841,-1.4838,-1.4842,-1.4845,-1.4853,-1.4856,-1.4815,-1.4815,-1.4816,0,-1.5087,-1.507,-1.5035,-1.5027,-1.5014,-1.4973,-1.4972,-1.4954,-1.492,-1.4911,-1.4898,-1.4863,-1.4841,-1.4831,-1.4837,-1.4829,-1.4826,-1.4818,-1.4844,-1.4847,-1.485,-1.4857,-1.486,-1.4818,-1.4818,-1.4817,-1.4817,0,-1.5113,-1.5102,-1.5105,-1.5072,-1.5059,-1.5055,-1.5018,-1.5009,-1.4986,-1.4961,-1.4949,-1.4921,-1.4897,-1.4893,-1.4871,-1.4879,-1.4871,-1.4852,-1.4828,-1.4858,-1.4863,-1.4866,-1.4822,-1.4821,-1.482,-1.4819,0,0,-1.5185,-1.5131,-1.5133,-1.5116,-1.5079,-1.5069,-1.5062,-1.5038,-1.5029,-1.5007,-1.4998,-1.4977,-1.4957,-1.4942,-1.4917,-1.4915,-1.4935,-1.4894,-1.4893,-1.4901,-1.4939,-1.4953,-1.4957,-1.4919,-1.4919,-1.492,-1.4941,0,-1.5217,-1.5202,-1.5168,-1.5163,-1.5151,-1.5111,-1.5104,-1.508,-1.5056,-1.5042,-1.5015,-1.4999,-1.4976,-1.4966,-1.4962,-1.4934,-1.4942,-1.4932,-1.4909,-1.4908,-1.4916,-1.496,-1.4976,-1.4997,-1.4943,-1.4943,-1.4944,0,-1.5252,-1.523,-1.5224,-1.5184,-1.5178,-1.5173,-1.5146,-1.5134,-1.5104,-1.5087,-1.5068,-1.504,-1.5028,-1.5007,-1.4988,-1.4982,-1.497,-1.4955,-1.4955,-1.4951,-1.4927,-1.4955,-1.5004,-1.5006,-1.4947,-1.4947,-1.4947,0,-1.5303,-1.5272,-1.5264,-1.5251,-1.5206,-1.5202,-1.5183,-1.5152,-1.5139,-1.5116,-1.5106,-1.5082,-1.5069,-1.505,-1.5015,-1.5003,-1.5,-1.4976,-1.4984,-1.4984,-1.4984,-1.4985,-1.503,-1.498,-1.4979,-1.4979,-1.4979,0,-1.5341,-1.5338,-1.5286,-1.528,-1.5275,-1.5236,-1.5231,-1.5208,-1.5181,-1.5169,-1.5133,-1.5123,-1.5078,-1.5062,-1.5035,-1.5022,-1.5017,-1.5002,-1.4994,-1.5004,-1.5006,-1.4995,-1.4992,-1.498,-1.498,-1.498,-1.498,0,-1.5396,-1.5362,-1.5349,-1.5306,-1.5295,-1.5293,-1.5256,-1.5248,-1.5221,-1.5207,-1.5201,-1.5159,-1.5138,-1.5101,-1.507,-1.5051,-1.5044,-1.5032,-1.5054,-1.5049,-1.5058,-1.5057,-1.5096,-1.5098,-1.5049,-1.5049,-1.505,0,-1.5422,-1.5419,-1.5375,-1.5364,-1.5346,-1.533,-1.5316,-1.5276,-1.5263,-1.5227,-1.5223,-1.5199,-1.5177,-1.5145,-1.5111,-1.5086,-1.5072,-1.5088,-1.5068,-1.5077,-1.507,-1.507,-1.5068,-1.5092,-1.5093,-1.5094,-1.5094,0,-1.5471,-1.5453,-1.5434,-1.5409,-1.5392,-1.537,-1.5346,-1.534,-1.5294,-1.5281,-1.5258,-1.5241,-1.5208,-1.5184,-1.5153,-1.5132,-1.5105,-1.51,-1.51,-1.511,-1.5121,-1.5113,-1.5064,-1.51,-1.5099,-1.5099,-1.5098,-1.5098,-1.5511,-1.5505,-1.5472,-1.5452,-1.5429,-1.5407,-1.5397,-1.5368,-1.5349,-1.5319,-1.5297,-1.5275,-1.5242,-1.5199,-1.5178,-1.516,-1.5148,-1.5149,-1.5148,-1.5149,-1.5151,-1.5125,-1.5154,-1.5154,-1.5154,-1.5154,-1.5154,0,-1.5556,-1.5533,-1.5514,-1.5481,-1.5464,-1.544,-1.5411,-1.5398,-1.538,-1.5352,-1.5331,-1.5304,-1.5279,-1.5242,-1.5214,-1.5206,-1.5193,-1.52,-1.52,-1.5195,-1.5165,-1.5167,-1.5211,-1.5211,-1.5211,-1.5211,-1.5211,-1.5211,-1.5577,-1.5565,-1.5543,-1.5519,-1.5495,-1.5474,-1.5459,-1.5437,-1.5414,-1.5386,-1.5365,-1.5341,-1.5309,-1.5277,-1.5253,-1.5242,-1.5233,-1.5244,-1.5229,-1.5202,-1.5197,-1.5192,-1.5193,-1.5243,-1.5243,-1.526,-1.526,-1.526]},{"header":{"parameterUnit":"m.s-1","parameterCategory":1,"la1":30.2991,"la2":30.254,"lo1":-89.0895,"lo2":-89.0444,"dy":0.0017,"dx":0.0017,"nx":28,"ny":28,"refTime":"2024-05-15T21:00:00:Z","depth":0,"parameterNumber":3,"parameterNumberName":"V-component_of_WINDS"},"data":[0,0,0,0,0,0,0,0,0,0,0,0,0,0,0,0,0,0,0,0,0,0,0,0,0,0,0,0,0,0,0,0,0,0,0,0,0,0,0,0,0,0,0,0,0,0,0,0,0,0,0,0,0,0,0,0,0,0,0.4465,0.4464,0,0.4416,0.4415,0.4414,0.4346,0.4345,0.4344,0.4343,0.4293,0.4293,0.4293,0,0,0,0,0,0,0,0,0,0,0,0,0,0.4503,0.4502,0.4465,0.4464,0.4464,0.4416,0.4415,0.4414,0.4346,0.4345,0.4343,0.4342,0.4293,0.4293,0.4293,0,0,0,0,0,0,0,0,0,0,0,0,0,0.4473,0.4502,0.4465,0.4424,0.442,0.4416,0.4415,0.4414,0.4347,0.4345,0.4343,0.4341,0.4293,0.4293,0.4293,0.4325,0,0,0.4291,0.4291,0,0,0,0,0,0,0,0,0.4475,0.4472,0.4431,0.4427,0.4422,0.4385,0.441,0.4384,0.4347,0.4374,0.4343,0.4341,0.4325,0.4322,0.4317,0.4323,0.4321,0.4291,0.4291,0.4291,0.4291,0,0,0,0,0,0,0,0.4477,0.4473,0.4445,0.443,0.4425,0.4409,0.4403,0.4405,0.436,0.4372,0.4367,0.4362,0.4323,0.4317,0.4315,0.432,0.4291,0.4291,0.4291,0.4291,0.4352,0.4354,0,0,0,0,0,0,0.4485,0.4476,0.4447,0.4444,0.4445,0.4409,0.4403,0.4399,0.436,0.4352,0.4363,0.4359,0.4319,0.4315,0.4313,0.435,0.4291,0.4291,0.429,0.435,0.4352,0.4354,0,0,0,0,0,0,0.4486,0.4483,0.4449,0.4458,0.4453,0.4411,0.4407,0.4399,0.4393,0.4353,0.4345,0.4366,0.4317,0.4313,0.4323,0.4347,0.4291,0.429,0.4348,0.4351,0.4353,0.4423,0,0,0,0,0,0,0.4487,0.4484,0.4495,0.4459,0.4453,0.4459,0.4408,0.4399,0.4393,0.4386,0.4354,0.4347,0.4316,0.4324,0.4323,0.4345,0.429,0.4345,0.4349,0.4352,0.4418,0.4428,0.4436,0,0,0,0,0,0.4489,0.4517,0.4496,0.4493,0.4466,0.4461,0.4457,0.442,0.4395,0.4407,0.4381,0.4348,0.4344,0.4325,0.4323,0.4347,0.4344,0.4348,0.4352,0.4414,0.4426,0.4436,0,0,0,0,0,0,0.4557,0.4511,0.4488,0.4505,0.4487,0.4449,0.4463,0.4433,0.4423,0.4418,0.4373,0.4366,0.4381,0.4364,0.4344,0.4377,0.4339,0.4343,0.4387,0.4398,0.4406,0.4411,0.429,0,0,0,0,0,0.4573,0.4573,0.4533,0.4552,0.4544,0.4505,0.4502,0.4475,0.4455,0.4447,0.4423,0.4405,0.44,0.4398,0.4391,0.4415,0.4408,0.443,0.4439,0.4447,0.4451,0.4464,0.4474,0.4368,0.4368,0.4368,0,0,0.4608,0.4583,0.4586,0.4565,0.4548,0.4549,0.4499,0.4502,0.4503,0.4448,0.4455,0.4437,0.4414,0.4432,0.4438,0.4419,0.4479,0.4452,0.4458,0.4458,0.447,0.448,0.4489,0.4371,0.437,0.437,0,0,0.4673,0.4653,0.4667,0.4652,0.4627,0.4601,0.4605,0.4572,0.4557,0.4564,0.4523,0.4524,0.4516,0.4502,0.4494,0.4555,0.4524,0.4554,0.46,0.4613,0.4622,0.4629,0.4652,0.4661,0.4558,0.4558,0.4558,0,0.4719,0.4719,0.4678,0.4684,0.4677,0.4627,0.4642,0.4629,0.4604,0.46,0.4578,0.4568,0.4549,0.4564,0.4579,0.4573,0.4577,0.4557,0.4624,0.463,0.4637,0.4658,0.4667,0.4562,0.4561,0.4561,0.4561,0,0.4778,0.4779,0.4793,0.477,0.4764,0.4775,0.4737,0.4736,0.471,0.4687,0.4695,0.4671,0.4659,0.466,0.4635,0.4672,0.466,0.4632,0.4593,0.4651,0.4671,0.4679,0.4567,0.4566,0.4565,0.4564,0,0,0.4884,0.4839,0.4845,0.4835,0.4805,0.4804,0.4813,0.4801,0.4802,0.4787,0.4794,0.4789,0.4762,0.4753,0.4726,0.4738,0.4789,0.4707,0.4706,0.4725,0.4831,0.4854,0.4864,0.4769,0.477,0.4771,0.4833,0,0.4943,0.4955,0.492,0.4941,0.4942,0.4895,0.4903,0.4886,0.4864,0.4862,0.4839,0.4837,0.4801,0.4796,0.4805,0.4781,0.481,0.4776,0.4776,0.4777,0.4785,0.4874,0.4897,0.4957,0.484,0.4841,0.4842,0,0.5014,0.5003,0.5024,0.4994,0.4993,0.5001,0.4988,0.4986,0.4967,0.495,0.4941,0.491,0.4917,0.488,0.489,0.4867,0.4865,0.4854,0.4855,0.4855,0.4814,0.4877,0.4975,0.4985,0.4854,0.4853,0.4852,0,0.5091,0.5081,0.5093,0.5085,0.505,0.5057,0.5043,0.5021,0.5017,0.5006,0.5003,0.4993,0.4988,0.4981,0.4948,0.4924,0.4964,0.4923,0.4952,0.4953,0.4963,0.4963,0.5063,0.4959,0.4959,0.4959,0.4959,0,0.5162,0.5178,0.5127,0.5135,0.5151,0.5111,0.5128,0.5109,0.5091,0.5094,0.5053,0.5058,0.5013,0.5013,0.4987,0.5001,0.4998,0.4986,0.498,0.4991,0.4993,0.499,0.4985,0.4961,0.4961,0.496,0.496,0,0.5251,0.5218,0.5228,0.5194,0.5186,0.52,0.5171,0.5177,0.5154,0.5159,0.5158,0.5121,0.5119,0.5085,0.5076,0.5059,0.5083,0.5068,0.509,0.5086,0.5117,0.5116,0.522,0.5233,0.512,0.5121,0.5122,0,0.5299,0.531,0.5278,0.5277,0.5265,0.5265,0.526,0.5221,0.5218,0.5197,0.5207,0.5201,0.5195,0.5194,0.5167,0.516,0.5145,0.5183,0.5144,0.5156,0.5148,0.5148,0.515,0.5191,0.5193,0.5194,0.5195,0,0.5389,0.5372,0.5367,0.5357,0.5354,0.5344,0.5331,0.5334,0.5291,0.529,0.5287,0.5283,0.5274,0.5269,0.5258,0.5244,0.5213,0.5207,0.5214,0.5226,0.5239,0.5234,0.5114,0.5205,0.5204,0.5203,0.5203,0.5202,0.546,0.5468,0.5447,0.5443,0.543,0.542,0.5424,0.5402,0.5399,0.5388,0.5365,0.5367,0.5348,0.5329,0.5318,0.532,0.5301,0.531,0.5312,0.5316,0.5323,0.5238,0.5317,0.5317,0.5316,0.5316,0.5316,0,0.5549,0.5533,0.553,0.5514,0.5512,0.5483,0.5468,0.5468,0.547,0.5455,0.545,0.5448,0.5444,0.5417,0.541,0.5417,0.5403,0.5416,0.5416,0.5414,0.5339,0.5335,0.5428,0.5428,0.5428,0.5428,0.5428,0.5428,0.5595,0.5607,0.5589,0.5595,0.5579,0.558,0.5575,0.5566,0.5553,0.5553,0.555,0.5532,0.5513,0.5504,0.55,0.5492,0.5492,0.5511,0.5499,0.543,0.5419,0.5409,0.5405,0.5511,0.5511,0.5574,0.5575,0.5575]}]]